Location: Krakow
(50.0830°N, 19.9170°E)
Time: 07:12:00
(UTC+02:00)

Tiros 1 despin weight - Pass Details

Date: 20 March 2026
Orbit: 555 x 592 km, 48.2° (Epoch: 18 April)

Event Time Altitude Azimuth Distance (km) Brightness Sun altitude
Rises 09:18:06 0° 276° (W) 2,799 ? 30.5°
Reaches altitude 10° 09:21:35 10° 247° (WSW) 1,885 ? 30.9°
Maximum altitude 09:23:25 13° 222° (SW) 1,716 ? 31.1°
Drops below altitude 10° 09:25:15 10° 196° (SSW) 1,870 ? 31.3°
Sets 09:28:41 0° 167° (SSE) 2,752 ? 31.7°
